| time (UTC) | temp F | wind direction | speed MPH | gust MPH | rain 1hr in | rain 24hr in | rain mn in | humidity % | barometer mb |
| 20260507000035 | 43 | 279 | 0.0 | 2.0 | 0.00 | 0.41 | 0.41 | 95 | 1012.6 |
| 20260506234533 | 43 | 279 | 1.0 | 3.0 | 0.00 | 0.41 | 0.41 | 94 | 1012.5 |
| 20260506233033 | 43 | 279 | 0.0 | 2.0 | 0.00 | 0.41 | 0.41 | 95 | 1012.5 |
| 20260506231531 | 43 | 279 | 1.0 | 3.0 | 0.00 | 0.41 | 0.41 | 95 | 1012.4 |
| 20260506230030 | 43 | 298 | 2.0 | 4.0 | 0.00 | 0.41 | 0.41 | 95 | 1012.1 |
| 20260506224535 | 43 | 267 | 2.0 | 4.0 | 0.00 | 0.42 | 0.41 | 95 | 1012.2 |
| 20260506223027 | 43 | 268 | 3.0 | 7.0 | 0.00 | 0.42 | 0.41 | 95 | 1011.8 |
| 20260506221524 | 44 | 275 | 3.0 | 4.0 | 0.00 | 0.42 | 0.41 | 96 | 1011.5 |
| 20260506220134 | 44 | 248 | 3.0 | 4.0 | 0.00 | 0.42 | 0.41 | 96 | 1011.3 |
| 20260506214521 | 44 | 271 | 3.0 | 5.0 | 0.00 | 0.42 | 0.41 | 95 | 1011.7 |
| 20260506213019 | 44 | 264 | 4.0 | 8.0 | 0.00 | 0.42 | 0.41 | 95 | 1011.4 |
| 20260506211520 | 44 | 257 | 2.0 | 6.0 | 0.00 | 0.42 | 0.41 | 96 | 1011.0 |
| 20260506210014 | 44 | 266 | 3.0 | 6.0 | 0.01 | 0.42 | 0.41 | 96 | 1010.6 |
| 20260506204512 | 45 | 275 | 2.0 | 5.0 | 0.01 | 0.42 | 0.41 | 96 | 1010.3 |
| 20260506203012 | 45 | 250 | 3.0 | 7.0 | 0.03 | 0.42 | 0.41 | 96 | 1010.1 |
| 20260506201525 | 45 | 273 | 2.0 | 4.0 | 0.04 | 0.42 | 0.41 | 96 | 1009.6 |
| 20260506200006 | 45 | 272 | 2.0 | 6.0 | 0.04 | 0.55 | 0.40 | 95 | 1009.4 |
| 20260506194507 | 46 | 247 | 3.0 | 5.0 | 0.04 | 0.55 | 0.40 | 95 | 1009.3 |
| 20260506193002 | 46 | 255 | 2.0 | 4.0 | 0.02 | 0.53 | 0.38 | 95 | 1009.3 |
| 20260506191501 | 46 | 245 | 2.0 | 4.0 | 0.01 | 0.52 | 0.37 | 95 | 1009.3 |
| 20260506190100 | 47 | 246 | 2.0 | 4.0 | 0.01 | 0.51 | 0.36 | 95 | 1009.0 |
| 20260506184632 | 47 | 250 | 2.0 | 4.0 | 0.01 | 0.51 | 0.36 | 95 | 1008.8 |
| 20260506183107 | 47 | 251 | 1.0 | 5.0 | 0.02 | 0.51 | 0.36 | 94 | 1008.7 |
| 20260506181559 | 47 | 257 | 2.0 | 4.0 | 0.02 | 0.51 | 0.36 | 94 | 1008.2 |
| 20260506180056 | 49 | 270 | 3.0 | 4.0 | 0.01 | 0.50 | 0.35 | 93 | 1008.0 |
| 20260506174549 | 50 | 266 | 3.0 | 5.0 | 0.01 | 0.50 | 0.35 | 92 | 1007.7 |
| 20260506173049 | 54 | 251 | 1.0 | 4.0 | 0.00 | 0.49 | 0.34 | 93 | 1007.5 |
| 20260506171556 | 56 | 272 | 3.0 | 7.0 | 0.00 | 0.49 | 0.34 | 93 | 1007.4 |
| 20260506170050 | 56 | 196 | 3.0 | 8.0 | 0.00 | 0.49 | 0.34 | 94 | 1007.5 |
| 20260506164546 | 56 | 160 | 4.0 | 8.0 | 0.01 | 0.49 | 0.34 | 94 | 1007.5 |
| 20260506163042 | 56 | 169 | 4.0 | 8.0 | 0.01 | 0.49 | 0.34 | 94 | 1007.3 |
| 20260506161543 | 55 | 158 | 4.0 | 8.0 | 0.02 | 0.49 | 0.34 | 94 | 1007.2 |
| 20260506160047 | 55 | 168 | 4.0 | 7.0 | 0.04 | 0.49 | 0.34 | 94 | 1007.4 |
| 20260506154540 | 55 | 155 | 4.0 | 8.0 | 0.04 | 0.48 | 0.33 | 94 | 1007.4 |
| 20260506153040 | 55 | 158 | 3.0 | 8.0 | 0.05 | 0.48 | 0.33 | 94 | 1007.3 |
| 20260506151541 | 55 | 173 | 3.0 | 4.0 | 0.05 | 0.47 | 0.32 | 94 | 1007.5 |
| 20260506150039 | 55 | 153 | 2.0 | 10.0 | 0.04 | 0.45 | 0.30 | 94 | 1007.3 |
| 20260506144552 | 55 | 116 | 2.0 | 4.0 | 0.04 | 0.44 | 0.28 | 94 | 1007.3 |
| 20260506143037 | 55 | 119 | 2.0 | 6.0 | 0.05 | 0.43 | 0.28 | 93 | 1007.2 |
| 20260506141535 | 54 | 112 | 2.0 | 5.0 | 0.06 | 0.42 | 0.27 | 93 | 1007.5 |
| 20260506140035 | 54 | 165 | 3.0 | 4.0 | 0.09 | 0.41 | 0.26 | 93 | 1007.6 |
| 20260506134534 | 54 | 139 | 1.0 | 7.0 | 0.13 | 0.40 | 0.25 | 93 | 1007.4 |
| 20260506133034 | 54 | 121 | 1.0 | 5.0 | 0.15 | 0.38 | 0.23 | 92 | 1007.6 |
| 20260506131541 | 54 | 115 | 2.0 | 6.0 | 0.16 | 0.36 | 0.21 | 92 | 1008.2 |
| 20260506130031 | 54 | 130 | 3.0 | 15.0 | 0.13 | 0.32 | 0.17 | 92 | 1008.2 |
| 20260506124533 | 54 | 147 | 4.0 | 7.0 | 0.09 | 0.27 | 0.12 | 92 | 1008.3 |
| 20260506123028 | 54 | 115 | 2.0 | 4.0 | 0.05 | 0.23 | 0.08 | 91 | 1007.8 |
| 20260506121527 | 54 | 128 | 2.0 | 4.0 | 0.03 | 0.20 | 0.05 | 91 | 1007.7 |
| 20260506120027 | 54 | 140 | 2.0 | 3.0 | 0.02 | 0.19 | 0.04 | 91 | 1007.8 |
| 20260506114535 | 54 | 132 | 2.0 | 3.0 | 0.01 | 0.22 | 0.03 | 90 | 1008.4 |
| 20260506113025 | 54 | 156 | 2.0 | 4.0 | 0.02 | 0.22 | 0.03 | 89 | 1008.3 |
| 20260506111524 | 54 | 143 | 1.0 | 5.0 | 0.01 | 0.21 | 0.02 | 89 | 1008.3 |
| 20260506110027 | 55 | 123 | 1.0 | 3.0 | 0.02 | 0.21 | 0.02 | 89 | 1008.2 |
| 20260506104523 | 55 | 106 | 2.0 | 4.0 | 0.02 | 0.21 | 0.02 | 88 | 1008.3 |
| 20260506103022 | 55 | 155 | 1.0 | 3.0 | 0.01 | 0.20 | 0.01 | 87 | 1008.4 |
| 20260506101524 | 55 | 155 | 1.0 | 5.0 | 0.01 | 0.20 | 0.01 | 85 | 1008.2 |
| 20260506100023 | 54 | 162 | 2.0 | 6.0 | 0.00 | 0.19 | 0.00 | 87 | 1007.9 |
| 20260506094518 | 54 | 169 | 1.0 | 4.0 | 0.00 | 0.19 | 0.00 | 87 | 1007.8 |
| 20260506093015 | 54 | 169 | 2.0 | 3.0 | 0.00 | 0.19 | 0.00 | 88 | 1007.8 |
| 20260506091513 | 53 | 169 | 1.0 | 6.0 | 0.00 | 0.19 | 0.00 | 89 | 1008.1 |
| 20260506090010 | 52 | 161 | 3.0 | 5.0 | 0.00 | 0.19 | 0.00 | 91 | 1008.2 |
| 20260506084509 | 51 | 155 | 1.0 | 6.0 | 0.00 | 0.19 | 0.00 | 90 | 1008.4 |
| 20260506083009 | 51 | 25 | 0.0 | 2.0 | 0.00 | 0.19 | 0.00 | 89 | 1008.6 |
| 20260506081510 | 51 | 26 | 0.0 | 0.0 | 0.00 | 0.19 | 0.00 | 89 | 1008.4 |
| 20260506073006 | 52 | 29 | 1.0 | 3.0 | 0.00 | 0.19 | 0.00 | 89 | 1008.5 |
| 20260506071506 | 52 | 31 | 1.0 | 2.0 | 0.00 | 0.19 | 0.00 | 89 | 1008.4 |
| 20260506061601 | 52 | 46 | 0.0 | 3.0 | 0.00 | 0.19 | 0.00 | 89 | 1009.2 |
| 20260506044549 | 53 | 360 | 1.0 | 4.0 | 0.00 | 0.19 | 0.00 | 87 | 1010.0 |
| 20260506043047 | 53 | 360 | 1.0 | 3.0 | 0.00 | 0.19 | 0.00 | 87 | 1010.0 |
| 20260506041548 | 53 | 360 | 0.0 | 3.0 | 0.00 | 0.19 | 0.00 | 86 | 1010.1 |
| 20260506040040 | 53 | 34 | 1.0 | 4.0 | 0.00 | 0.19 | 0.00 | 86 | 1010.4 |
| 20260506034540 | 54 | 38 | 0.0 | 3.0 | 0.00 | 0.19 | 0.19 | 85 | 1010.4 |
| 20260506033038 | 54 | 38 | 1.0 | 2.0 | 0.00 | 0.19 | 0.19 | 85 | 1010.8 |
| 20260506031538 | 55 | 270 | 1.0 | 2.0 | 0.00 | 0.19 | 0.19 | 85 | 1010.7 |
| 20260506030054 | 55 | 247 | 1.0 | 4.0 | 0.00 | 0.19 | 0.19 | 83 | 1010.8 |
| 20260506024537 | 55 | 106 | 1.0 | 5.0 | 0.00 | 0.19 | 0.19 | 83 | 1010.4 |
| 20260506023028 | 57 | 254 | 3.0 | 9.0 | 0.00 | 0.19 | 0.19 | 84 | 1010.4 |
| 20260506021527 | 58 | 265 | 1.0 | 4.0 | 0.00 | 0.19 | 0.19 | 85 | 1010.2 |
| 20260506020026 | 59 | 313 | 1.0 | 4.0 | 0.00 | 0.19 | 0.19 | 85 | 1010.3 |
| 20260506014523 | 60 | 296 | 1.0 | 3.0 | 0.00 | 0.19 | 0.19 | 84 | 1010.0 |
| 20260506013023 | 60 | 296 | 1.0 | 3.0 | 0.00 | 0.19 | 0.19 | 84 | 1010.1 |
| 20260506011530 | 61 | 299 | 0.0 | 3.0 | 0.00 | 0.19 | 0.19 | 84 | 1009.3 |
| 20260506010020 | 61 | 331 | 1.0 | 3.0 | 0.00 | 0.19 | 0.19 | 81 | 1009.6 |
| 20260506004533 | 61 | 159 | 3.0 | 5.0 | 0.00 | 0.19 | 0.19 | 80 | 1009.0 |
| 20260506003023 | 61 | 178 | 2.0 | 3.0 | 0.00 | 0.19 | 0.19 | 80 | 1008.7 |
| 20260506001521 | 61 | 178 | 1.0 | 3.0 | 0.00 | 0.19 | 0.19 | 80 | 1008.5 |